GW5795 Weather Reports


time (UTC)temp
F
wind
direction
speed
knots
gust
knots
rain 1hr
in
rain 24hr
in
rain mn
in
humidity
%
barometer
mb
20260507094437 42 189 1.7 6.1 0.00 0.00 0.00 74 1013.0
20260507093935 42 200 1.7 6.1 0.00 0.00 0.00 73 1013.0
20260507093432 42 182 2.6 2.6 0.00 0.00 0.00 73 1013.2
20260507092931 42 192 3.5 5.2 0.00 0.00 0.00 72 1013.0
20260507092427 42 186 0.9 2.6 0.00 0.00 0.00 72 1013.2
20260507091923 42 161 1.7 3.5 0.00 0.00 0.00 72 1013.2
20260507091420 42 181 2.6 5.2 0.00 0.00 0.00 72 1013.1
20260507090916 42 184 0.0 2.6 0.00 0.00 0.00 71 1013.1
20260507090412 42 203 2.6 3.5 0.00 0.00 0.00 71 1013.2
20260507085909 42 210 2.6 6.1 0.00 0.00 0.00 71 1013.1
20260507085406 42 190 3.5 5.2 0.00 0.00 0.00 71 1013.2
20260507084903 42 176 1.7 2.6 0.00 0.00 0.00 70 1013.2
20260507084400 42 182 3.5 5.2 0.00 0.00 0.00 70 1013.4
20260507083857 42 226 2.6 5.2 0.00 0.00 0.00 70 1013.6
20260507083353 42 197 3.5 5.2 0.00 0.00 0.00 69 1013.5
20260507082850 42 196 1.7 5.2 0.00 0.00 0.00 69 1013.6
20260507082345 42 217 3.5 5.2 0.00 0.00 0.00 68 1013.3
20260507081843 42 210 3.5 6.1 0.00 0.00 0.00 67 1013.6
20260507081338 42 187 3.5 6.1 0.00 0.00 0.00 68 1013.7
20260507080836 42 189 1.7 3.5 0.00 0.00 0.00 67 1013.8
20260507080331 42 180 2.6 6.1 0.00 0.00 0.00 67 1014.0
20260507075827 42 187 3.5 6.1 0.00 0.00 0.00 67 1014.1
20260507075323 43 201 2.6 3.5 0.00 0.00 0.00 66 1014.2
20260507074820 43 227 5.2 6.1 0.00 0.00 0.00 65 1014.2
20260507074317 43 192 2.6 7.8 0.00 0.00 0.00 65 1014.3
20260507073815 42 186 1.7 6.1 0.00 0.00 0.00 64 1014.2
20260507073311 42 192 1.7 3.5 0.00 0.00 0.00 64 1014.2
20260507072808 41 198 1.7 3.5 0.00 0.00 0.00 64 1014.1
20260507072307 41 189 1.7 3.5 0.00 0.00 0.00 63 1014.6
20260507071803 40 182 1.7 2.6 0.00 0.00 0.00 64 1014.6
20260507071259 40 186 0.9 1.7 0.00 0.00 0.00 64 1014.7
20260507070756 39 186 0.9 0.9 0.00 0.00 0.00 63 1014.7
20260507070254 39 182 0.9 1.7 0.00 0.00 0.00 64 1014.7
20260507065750 39 180 0.0 0.0 0.00 0.00 0.00 63 1014.9
20260507065247 38 178 0.0 0.0 0.00 0.00 0.00 64 1015.1
20260507064744 39 187 0.0 0.9 0.00 0.00 0.00 65 1015.0
20260507064243 39 187 0.0 0.9 0.00 0.00 0.00 66 1015.1
20260507063740 39 186 0.9 1.7 0.00 0.00 0.00 64 1015.2
20260507063237 38 189 0.9 0.9 0.00 0.00 0.00 68 1015.3
20260507062733 37 182 0.0 0.0 0.00 0.00 0.00 69 1015.4
20260507062231 37 182 0.0 0.0 0.00 0.00 0.00 67 1015.4
20260507061729 38 182 0.0 0.0 0.00 0.00 0.00 67 1015.5
20260507061227 38 182 0.0 0.0 0.00 0.00 0.00 66 1015.6
20260507060724 38 182 0.0 0.0 0.00 0.00 0.00 65 1015.5
20260507060221 39 183 0.0 0.0 0.00 0.00 0.00 64 1015.7
20260507055717 39 183 0.0 0.0 0.00 0.00 0.00 64 1015.8
20260507055213 40 182 0.0 0.0 0.00 0.00 0.00 62 1015.8
20260507054709 41 183 0.0 0.0 0.00 0.00 0.00 60 1016.1
20260507054206 41 183 0.0 0.0 0.00 0.00 0.00 61 1015.9
20260507053704 41 185 0.0 0.0 0.00 0.00 0.00 59 1015.9
20260507053201 41 185 0.9 1.7 0.00 0.00 0.00 59 1016.1
20260507052700 40 188 0.9 0.9 0.00 0.00 0.00 62 1016.2
20260507052155 40 185 0.0 0.0 0.00 0.00 0.00 62 1016.1
20260507051653 39 183 0.0 0.0 0.00 0.00 0.00 62 1016.1
20260507051150 39 188 0.0 0.0 0.00 0.00 0.00 63 1016.3
20260507050647 40 188 0.0 0.0 0.00 0.00 0.00 61 1016.1
20260507050143 40 187 0.0 0.0 0.00 0.00 0.00 62 1016.3
20260507045640 40 188 0.0 0.0 0.00 0.00 0.00 61 1016.3
20260507045137 40 188 0.0 0.0 0.00 0.00 0.00 61 1016.5
20260507044634 41 188 0.0 0.0 0.00 0.00 0.00 60 1016.4
20260507044131 41 188 0.0 0.0 0.00 0.00 0.00 58 1016.6
20260507043627 41 188 0.0 0.0 0.00 0.00 0.00 56 1016.6
20260507043124 40 188 0.0 0.0 0.00 0.00 0.00 57 1016.3
20260507042620 41 188 0.0 0.0 0.00 0.00 0.00 57 1016.5
20260507042115 41 189 0.0 0.0 0.00 0.00 0.00 55 1016.4
20260507041612 40 191 0.0 0.0 0.00 0.00 0.00 53 1016.6
20260507041109 41 194 0.0 0.0 0.00 0.00 0.00 54 1016.6
20260507040606 42 178 0.0 0.9 0.00 0.00 0.00 53 1016.7
20260507035558 43 186 0.0 0.0 0.00 0.00 0.00 51 1016.6
20260507035055 44 187 0.0 0.0 0.00 0.00 0.00 46 1016.6
20260507034552 44 187 0.0 0.0 0.00 0.00 0.00 46 1016.8
20260507034050 44 187 0.0 0.0 0.00 0.00 0.00 46 1016.6
20260507033548 44 187 0.0 0.0 0.00 0.00 0.00 45 1017.0
20260507033045 44 187 0.0 0.0 0.00 0.00 0.00 48 1016.8
20260507032542 44 187 0.0 0.0 0.00 0.00 0.00 50 1016.8
20260507032038 44 187 0.0 0.0 0.00 0.00 0.00 50 1016.8
20260507031534 44 187 0.0 0.0 0.00 0.00 0.00 49 1017.0
20260507031031 45 187 0.0 0.0 0.00 0.00 0.00 49 1017.1
20260507030528 45 187 0.0 0.0 0.00 0.00 0.00 49 1016.8
20260507030026 45 187 0.0 0.0 0.00 0.00 0.00 45 1017.1
20260507025522 45 186 0.0 0.0 0.00 0.00 0.00 46 1017.0
20260507025020 45 186 0.0 0.0 0.00 0.00 0.00 46 1017.0
20260507024518 45 186 0.0 0.0 0.00 0.00 0.00 45 1017.0
20260507024014 45 186 0.0 0.0 0.00 0.00 0.00 44 1016.9
20260507023510 46 187 0.0 0.0 0.00 0.00 0.00 44 1016.8
20260507023008 46 187 0.0 0.0 0.00 0.00 0.00 43 1017.1
20260507022504 48 187 0.0 0.0 0.00 0.00 0.00 41 1017.0
20260507022000 48 187 0.0 0.0 0.00 0.00 0.00 42 1016.9
20260507021455 49 187 0.0 0.0 0.00 0.00 0.00 41 1017.1
20260507020953 49 187 0.0 0.0 0.00 0.00 0.00 39 1016.8
20260507020450 50 187 0.0 0.0 0.00 0.00 0.00 37 1016.9
20260507015947 49 190 0.0 0.0 0.00 0.00 0.00 36 1016.8
20260507015445 50 188 0.0 0.0 0.00 0.00 0.00 36 1016.9
20260507014941 50 187 0.0 0.0 0.00 0.00 0.00 34 1016.8
20260507014438 51 188 0.0 0.0 0.00 0.00 0.00 34 1016.9
20260507013934 51 187 0.0 0.0 0.00 0.00 0.00 33 1016.8
20260507013431 52 188 0.0 0.0 0.00 0.00 0.00 34 1016.8
20260507012929 52 193 0.0 0.9 0.00 0.00 0.00 33 1016.6
20260507012426 52 190 0.9 1.7 0.00 0.00 0.00 33 1016.8
20260507011922 53 189 0.0 0.9 0.00 0.00 0.00 34 1016.8
20260507011420 53 189 0.0 0.9 0.00 0.00 0.00 33 1016.6
20260507010919 54 205 0.0 3.5 0.00 0.00 0.00 32 1016.8
20260507010415 55 183 0.9 3.5 0.00 0.00 0.00 32 1016.8
20260507005912 56 225 0.9 2.6 0.00 0.00 0.00 31 1017.1
20260507005409 57 304 0.9 2.6 0.00 0.00 0.00 30 1016.9
20260507004905 57 195 0.9 3.5 0.00 0.00 0.00 31 1016.9
20260507004402 56 196 0.9 2.6 0.00 0.00 0.00 29 1016.8
20260507003900 56 186 0.9 1.7 0.00 0.00 0.00 30 1017.1
20260507003355 56 191 0.9 1.7 0.00 0.00 0.00 31 1017.0
20260507002850 56 208 1.7 2.6 0.00 0.00 0.00 30 1017.2
20260507002347 58 293 2.6 5.2 0.00 0.00 0.00 28 1017.1
20260507001844 58 216 0.9 3.5 0.00 0.00 0.00 28 1017.0
20260507001341 58 181 0.0 0.9 0.00 0.00 0.00 29 1017.0
20260507000837 59 242 2.6 3.5 0.00 0.00 0.00 27 1017.1
20260507000333 58 193 0.9 2.6 0.00 0.00 0.00 28 1017.1
20260506235829 58 201 1.7 3.5 0.00 0.00 0.00 28 1017.2
20260506235326 59 334 5.2 7.0 0.00 0.00 0.00 28 1017.3
20260506234822 60 316 2.6 6.1 0.00 0.00 0.00 28 1017.4
20260506234320 60 187 2.6 7.0 0.00 0.00 0.00 27 1017.2
20260506233818 59 246 2.6 3.5 0.00 0.00 0.00 29 1017.2
20260506233313 59 257 1.7 2.6 0.00 0.00 0.00 29 1017.3
20260506232810 60 211 2.6 5.2 0.00 0.00 0.00 27 1017.4
20260506232306 59 226 2.6 6.1 0.00 0.00 0.00 29 1017.6
20260506231803 58 251 2.6 6.1 0.00 0.00 0.00 28 1017.6
20260506231301 59 319 3.5 5.2 0.00 0.00 0.00 27 1017.7
20260506230758 60 188 8.7 12.2 0.00 0.00 0.00 27 1017.5
20260506230255 59 184 0.9 2.6 0.00 0.00 0.00 31 1017.5
20260506225751 58 163 1.7 3.5 0.00 0.00 0.00 31 1017.5
20260506225248 58 199 1.7 3.5 0.00 0.00 0.00 30 1017.7
20260506224744 57 160 1.7 1.7 0.00 0.00 0.00 31 1017.7
20260506224242 56 197 1.7 5.2 0.00 0.00 0.00 32 1017.8
20260506223738 57 316 3.5 8.7 0.00 0.00 0.00 29 1017.8
20260506223233 59 344 2.6 7.0 0.00 0.00 0.00 29 1017.9
20260506222731 59 304 7.8 9.6 0.00 0.00 0.00 28 1017.8
20260506222226 60 123 7.8 12.2 0.00 0.00 0.00 26 1017.8
20260506221725 60 291 1.7 5.2 0.00 0.00 0.00 31 1017.9
20260506221223 57 207 1.7 3.5 0.00 0.00 0.00 30 1018.0
20260506220720 57 285 2.6 6.1 0.00 0.00 0.00 30 1017.9
20260506220220 58 343 3.5 7.0 0.00 0.00 0.00 28 1018.1
20260506215717 58 243 1.7 5.2 0.00 0.00 0.00 28 1018.0
20260506215212 59 259 2.6 7.0 0.00 0.00 0.00 28 1018.0
20260506214709 60 174 3.5 7.0 0.00 0.00 0.00 25 1018.0
20260506214207 61 261 1.7 7.8 0.00 0.00 0.00 27 1018.4
20260506213705 61 214 0.9 6.1 0.00 0.00 0.00 30 1018.3
20260506213202 61 187 2.6 7.0 0.00 0.00 0.00 29 1018.4
20260506212659 62 340 6.1 7.8 0.00 0.00 0.00 26 1018.4
20260506212154 61 203 1.7 5.2 0.00 0.00 0.00 31 1018.3
20260506211650 60 233 3.5 7.0 0.00 0.00 0.00 28 1018.5
20260506211146 61 341 5.2 9.6 0.00 0.00 0.00 27 1018.4
20260506210643 59 191 0.9 3.5 0.00 0.00 0.00 34 1018.6
20260506210140 57 197 1.7 2.6 0.00 0.00 0.00 30 1018.7
20260506205637 57 289 3.5 5.2 0.00 0.00 0.00 29 1018.9
20260506205132 58 345 1.7 5.2 0.00 0.00 0.00 30 1018.9
20260506204630 59 263 4.3 7.0 0.00 0.00 0.00 29 1019.0
20260506204127 58 179 3.5 5.2 0.00 0.00 0.00 30 1019.2
20260506203625 60 212 5.2 7.8 0.00 0.00 0.00 28 1019.1
20260506203121 57 219 3.5 7.8 0.00 0.00 0.00 31 1019.2
20260506202619 58 280 4.3 7.0 0.00 0.00 0.00 29 1019.1
20260506202115 59 254 3.5 13.0 0.00 0.00 0.00 29 1019.2
20260506201613 58 242 1.7 7.0 0.00 0.00 0.00 37 1019.2
20260506201109 58 336 4.3 7.8 0.00 0.00 0.00 30 1019.3
20260506200605 58 228 2.6 5.2 0.00 0.00 0.00 31 1019.3
20260506195559 60 220 2.6 7.8 0.00 0.00 0.00 31 1019.4
20260506195055 58 214 2.6 7.0 0.00 0.00 0.00 37 1019.7
20260506194553 59 269 4.3 7.8 0.00 0.00 0.00 29 1019.6
20260506194049 58 344 4.3 7.0 0.00 0.00 0.00 31 1019.6
20260506193547 57 272 3.5 8.7 0.00 0.00 0.00 34 1019.7
20260506193044 56 347 2.6 6.1 0.00 0.00 0.00 32 1019.6
20260506192541 59 240 2.6 5.2 0.00 0.00 0.00 27 1019.7
20260506192036 59 285 4.3 9.6 0.00 0.00 0.00 33 1019.7
20260506191534 58 328 7.0 11.3 0.00 0.00 0.00 30 1019.8
20260506191029 58 349 5.2 7.0 0.00 0.00 0.00 30 1019.8
20260506190527 58 333 3.5 12.2 0.00 0.00 0.00 34 1019.9
20260506190024 58 331 4.3 7.8 0.00 0.00 0.00 33 1019.8
20260506185521 57 259 6.1 8.7 0.00 0.00 0.00 32 1020.0
20260506185017 56 188 0.9 8.7 0.00 0.00 0.00 36 1019.9
20260506184515 56 324 5.2 9.6 0.00 0.00 0.00 32 1019.9
20260506184012 56 195 3.5 9.6 0.00 0.00 0.00 32 1020.3
20260506183508 56 331 6.1 8.7 0.00 0.00 0.00 32 1020.1
20260506183005 58 194 3.5 6.1 0.00 0.00 0.00 35 1020.2
20260506182502 57 34 6.1 9.6 0.00 0.00 0.00 36 1020.3
20260506181959 56 201 1.7 6.1 0.00 0.00 0.00 30 1020.5
20260506181457 56 203 3.5 7.8 0.00 0.00 0.00 34 1020.5
20260506180953 56 188 1.7 7.8 0.00 0.00 0.00 34 1020.7
20260506180450 56 140 2.6 7.8 0.00 0.00 0.00 34 1020.7
20260506175946 56 202 4.3 9.6 0.00 0.00 0.00 35 1020.7
20260506175443 56 274 3.5 7.8 0.00 0.00 0.00 33 1020.8
20260506174940 56 211 6.1 8.7 0.00 0.00 0.00 35 1020.7
20260506174438 57 11 8.7 11.3 0.00 0.00 0.00 33 1020.7
20260506173934 56 353 7.0 12.2 0.00 0.00 0.00 35 1020.8
20260506173431 56 150 2.6 8.7 0.00 0.00 0.00 36 1020.8
20260506172928 56 339 4.3 7.0 0.00 0.00 0.00 39 1020.9
20260506172426 55 317 1.7 7.0 0.00 0.00 0.00 40 1020.9
20260506171922 54 333 5.2 12.2 0.00 0.00 0.00 35 1020.8
20260506171420 54 177 4.3 9.6 0.00 0.00 0.00 35 1021.0
20260506170918 53 212 3.5 8.7 0.00 0.00 0.00 35 1021.1
20260506170414 55 356 3.5 9.6 0.00 0.00 0.00 33 1021.1
20260506165913 55 232 2.6 6.1 0.00 0.00 0.00 37 1021.1
20260506165410 54 193 2.6 7.0 0.00 0.00 0.00 37 1021.1
20260506164906 53 300 5.2 8.7 0.00 0.00 0.00 34 1021.1
20260506164403 52 315 5.2 9.6 0.00 0.00 0.00 35 1021.3
20260506163901 52 340 3.5 6.1 0.00 0.00 0.00 37 1021.3
20260506163355 52 149 4.3 6.1 0.00 0.00 0.00 38 1021.2
20260506162850 52 342 8.7 13.0 0.00 0.00 0.00 35 1021.2
20260506162349 52 349 3.5 5.2 0.00 0.00 0.00 35 1021.4
20260506161846 51 347 5.2 8.7 0.00 0.00 0.00 35 1021.3
20260506161343 51 280 5.2 11.3 0.00 0.00 0.00 36 1021.3
20260506160841 51 205 1.7 9.6 0.00 0.00 0.00 37 1021.3
20260506160337 51 323 1.7 5.2 0.00 0.00 0.00 40 1021.2
20260506155836 51 248 2.6 8.7 0.00 0.00 0.00 38 1020.9
20260506155332 52 192 1.7 7.0 0.00 0.00 0.00 42 1021.0
20260506153444 52 339 3.5 7.0 0.00 0.00 0.00 39 1021.1
20260506152942 51 326 7.0 9.6 0.00 0.00 0.00 36 1021.2
20260506152438 51 318 3.5 11.3 0.00 0.00 0.00 38 1021.0
20260506151937 51 313 6.1 9.6 0.00 0.00 0.00 40 1020.9
20260506151434 51 314 3.5 13.0 0.00 0.00 0.00 38 1021.1
20260506150932 51 282 3.5 7.8 0.00 0.00 0.00 45 1021.1
20260506150427 51 261 2.6 5.2 0.00 0.00 0.00 44 1021.3
20260506145925 51 292 3.5 7.0 0.00 0.00 0.00 45 1021.3
20260506145421 51 299 2.6 7.8 0.00 0.00 0.00 41 1021.3
20260506144918 50 168 7.8 9.6 0.00 0.00 0.00 39 1021.2
20260506144415 51 353 5.2 7.0 0.00 0.00 0.00 39 1021.3
20260506143914 51 300 2.6 7.0 0.00 0.00 0.00 43 1021.4
20260506143410 50 187 0.9 5.2 0.00 0.00 0.00 41 1021.3
20260506142908 50 337 3.5 5.2 0.00 0.00 0.00 42 1021.1
20260506142406 49 263 1.7 6.1 0.00 0.00 0.00 42 1021.2
20260506141904 48 346 3.5 7.0 0.00 0.00 0.00 44 1021.3
20260506141401 48 56 3.5 7.0 0.00 0.00 0.00 42 1021.2
20260506140859 48 333 1.7 3.5 0.00 0.00 0.00 46 1021.1
20260506140356 48 168 3.5 6.1 0.00 0.00 0.00 45 1021.3
20260506135853 47 286 2.6 5.2 0.00 0.00 0.00 47 1021.3
20260506135350 47 299 2.6 5.2 0.00 0.00 0.00 47 1021.2
20260506134846 45 313 2.6 3.5 0.00 0.00 0.00 52 1021.2
20260506134343 44 183 0.9 1.7 0.00 0.00 0.00 55 1021.2
20260506133840 44 331 3.5 3.5 0.00 0.00 0.00 55 1021.1
20260506133336 43 175 0.0 1.7 0.00 0.00 0.00 55 1021.2
20260506132833 42 328 3.5 3.5 0.00 0.00 0.00 57 1021.1
20260506132330 41 187 2.6 3.5 0.00 0.00 0.00 61 1021.2
20260506131828 40 198 2.6 3.5 0.00 0.00 0.00 61 1021.2
20260506131324 39 207 1.7 2.6 0.00 0.00 0.00 63 1021.2
20260506130822 39 240 2.6 2.6 0.00 0.00 0.00 64 1021.1
20260506130318 38 184 0.0 0.9 0.00 0.00 0.00 66 1021.0
20260506125816 37 174 0.0 0.9 0.00 0.00 0.00 67 1021.1
20260506125314 36 171 0.0 0.0 0.00 0.00 0.00 68 1021.0
20260506124812 35 148 0.9 1.7 0.00 0.00 0.00 69 1021.0
20260506124309 34 192 0.9 1.7 0.00 0.00 0.00 70 1020.7
20260506123806 33 159 1.7 1.7 0.00 0.00 0.00 71 1020.8
20260506123305 33 160 0.9 2.6 0.00 0.00 0.00 72 1020.8
20260506122801 32 239 1.7 2.6 0.00 0.00 0.00 73 1020.7
20260506122258 32 304 2.6 2.6 0.00 0.00 0.00 74 1020.6
20260506121757 32 237 1.7 2.6 0.00 0.00 0.00 72 1020.3
20260506121253 32 190 0.9 0.9 0.00 0.00 0.00 72 1020.3
20260506120751 31 179 0.0 0.0 0.00 0.00 0.00 73 1020.3
20260506120248 31 187 0.0 0.0 0.00 0.00 0.00 74 1020.5
20260506115746 31 202 1.7 1.7 0.00 0.00 0.00 75 1020.2
20260506115244 30 179 0.0 0.0 0.00 0.00 0.00 76 1020.2
20260506114741 31 182 0.0 0.0 0.00 0.00 0.00 75 1020.2
20260506114239 31 173 0.0 0.9 0.00 0.00 0.00 75 1020.2
20260506113737 30 187 0.0 0.0 0.00 0.00 0.00 78 1020.0
20260506113234 29 187 0.0 0.0 0.00 0.00 0.00 80 1020.0
20260506112730 29 186 0.0 0.0 0.00 0.00 0.00 80 1019.9
20260506112228 29 186 0.0 0.0 0.00 0.00 0.00 80 1019.8
20260506111725 29 186 0.0 0.0 0.00 0.00 0.00 78 1019.6
20260506111224 29 186 0.0 0.0 0.00 0.00 0.00 78 1019.9
20260506110720 29 186 0.0 0.0 0.00 0.00 0.00 78 1019.8
20260506110218 29 186 0.0 0.0 0.00 0.00 0.00 77 1019.4
20260506105714 30 186 0.0 0.0 0.00 0.00 0.00 76 1019.5
20260506105211 30 187 0.0 0.0 0.00 0.00 0.00 76 1019.2
20260506104709 30 187 0.0 0.0 0.00 0.00 0.00 76 1019.4
20260506104207 30 187 0.0 0.0 0.00 0.00 0.00 76 1019.4
20260506103703 30 187 0.0 0.0 0.00 0.00 0.00 76 1019.4
20260506103200 30 187 0.0 0.0 0.00 0.00 0.00 76 1019.5
20260506102658 30 186 0.0 0.0 0.00 0.00 0.00 75 1019.5
20260506102156 30 186 0.0 0.0 0.00 0.00 0.00 73 1019.3
20260506101652 31 186 0.0 0.0 0.00 0.00 0.00 73 1019.3
20260506101149 31 187 0.0 0.0 0.00 0.00 0.00 72 1019.3
20260506100648 31 188 0.0 0.0 0.00 0.00 0.00 70 1019.3
20260506100145 31 190 0.0 0.0 0.00 0.00 0.00 70 1019.2
20260506095644 31 202 0.0 0.0 0.00 0.00 0.00 70 1019.3
20260506095140 32 188 0.0 0.0 0.00 0.00 0.00 69 1019.0
20260506094637 32 188 0.0 0.9 0.00 0.00 0.00 70 1019.0